Weather Roundup
Issued by NWS Chicago, IL

Home | Current Version | Previous Version | Text Only | Print | Product List | Glossary Off
Versions: 1 2 3 4 5 6 7 8 9 10 11 12 13 14 15 16 17 18 19 20 21 22 23 24 25 26 27 28 29 30 31 32 33 34 35 36 37 38 39 40 41 42 43 44 45 46 47 48 49 50

000
NZUS59 KLOT 220108
HRRLOT

CHICAGO AREA WEATHER ROUNDUP
NATIONAL WEATHER SERVICE CHICAGO/ROMEOVILLE IL
700 PM CST WED FEB 21 2018

NOTE: "FAIR" INDICATES FEW OR NO CLOUDS BELOW 12,000 FEET WITH NO
SIGNIFICANT WEATHER AND/OR OBSTRUCTIONS TO VISIBILITY.

* THESE STATIONS ARE NOT UNDER NWS QUALITY CONTROL. THEY ALSO MAY NOT
  REPORT WEATHER SUCH AS PRECIPITATION OR FOG.

ILZ005-006-012>014-019>023-220200-
NORTHEAST ILLINOIS

CITY           SKY/WX    TMP DP  RH WIND       PRES   REMARKS
OHARE          CLOUDY    29  19  66 NE12      30.62R WCI  19
MIDWAY         CLOUDY    29  21  72 NE13      30.62R WCI  19
AURORA           N/A     29  21  72 N8        30.62R WCI  21
LANSING*         N/A     30  26  84 NE9G16    30.62R WCI  21
JOLIET*          N/A     31  21  68 NE7       30.63R WCI  24
WAUKEGAN         N/A     27  19  72 N5        30.64R WCI  22
DUPAGE AIRPORT   N/A     28  22  78 NE9       30.61R WCI  19
WHEELING         N/A     29  21  72 N8        30.65R WCI  21
KANKAKEE*        N/A     30  25  81 NE13      30.61R WCI  20
MORRIS*          N/A     31  22  71 NE6       30.61S WCI  25
LEWIS AIRPORT*   N/A     28  20  71 NE9       30.62R WCI  20
NORTHERLY ISL    N/A     28  21  75 N12         N/A  WCI  18
$$

WIZ051-052-058>065-066-070>072-220200-
SOUTHEAST WISCONSIN

CITY           SKY/WX    TMP DP  RH WIND       PRES   REMARKS
MILWAUKEE      MOCLDY    28  16  60 N6        30.65R WCI  22
KENOSHA*         N/A     26  18  71 NE5       30.65R WCI  20
RACINE*          N/A     26  17  68 NE5       30.67R WCI  20
BURLINGTON       N/A     25  15  65 N5        30.65R WCI  19
WAUKESHA       CLEAR     21  14  73 NW5       30.66R WCI  15
WEST BEND        N/A     25  14  63 NW6       30.65R WCI  18
$$

INZ001>003-010>013-019-020-220200-
NORTHWEST INDIANA

CITY           SKY/WX    TMP DP  RH WIND       PRES   REMARKS
GARY*          NOT AVBL
MICHIGAN CITY* NOT AVBL
RENSSELAER*    NOT AVBL
VALPARAISO       N/A     30  25  81 N10       30.60S WCI  21
$$

LMZ740>746-220200-
SOUTHERN LAKE MICHIGAN

STATION/POSITION TIME  SKY/WX   TEMP WIND        PRES    VSBY
                                AIR  DIR/SP/G
                 (UTC)          (F)  (DEG/KT/KT) (MB)    (MI)
HARRISON CRIB    0030            29   20/ 15/ 16   N/A
BURNHAM HARBOR   0100            28   40/ 12/ 13   N/A
CALUMET HARBOR   0048            29   20/ 12/ 15 1036.4R
BURNS HARBOR     0010            30   30/ 16/ 18 1036.6
MICHIGAN CITY    0040            30   20/ 16/ 18   N/A
$$

ABBREVIATIONS USED IN REMARKS
   TC - TEMPERATURE IN CELSIUS
  WCI - WIND CHILL INDEX
   HX - HEAT INDEX
  VSB - VISIBILITY
$$




USA.gov is the U.S. government's official web portal to all federal, state and local government web resources and services.